Bei Facebook empfehlenBei Twitter postenGoogle plusPinterest

Das Wetter im Erzgebirge am 31.01.2015

Wetter und Klima am 31.01.2015 Holzhau im Erzgebirge (630m ü.NN)
Letzte gemessene Temperatur und Uhrzeit der Messung23:45:00 Uhr-5.80 °C
Temperatur (Maximum / Höchstwert) und Uhrzeit der Messung15:00:00 Uhr-0.60 °C
Temperatur (Minimum / Tiefstwert) und Uhrzeit der Messung23:45:00-5.80 °C
Errechneter Absolutwert der Temperaturschwankungen zwischen Tmin und Tmax des Tages5.20 K
Errechnete Tagesmitteltemperatur-2.71875 °C
Gesamt - Niederschlag des Tages (in flüssiger Form)0.00 Liter / m²
Luftdruck (Maximum / Höchstwert) und Zeitpunkt der Messung23:45:00 Uhr984.90 hPa
Luftdruck (Minimum / Tiefstwert) und Zeitpunkt der Messung00:45:00 Uhr975.40 hPa
Errechneter Absolutwert der Luftdruckschwankungen des Tages9.50 hPa
Höchste gemessene Windgeschwindigkeit und Uhrzeit der Messung03:00:00 Uhr16.56 km/h
Errechnete Windhäufigkeit in Relation zu den Messwerten des Tages17.70833 %
Niedrigste Windkühle (Windchill) und Zeitpunkt der Messung03:00:00 Uhr-9.20 °C
Taupunkt (Maximum / Höchstwert) und Uhrzeit der Messung14:45:00 Uhr-2.20 °C
Taupunkt (Minimum / Tiefstwert) und Uhrzeit der Messung23:45:00-7.70 °C
Anzahl der automatisch eingelesenen Messwerte 96

Detaillierte Wetter- und Klima- Messwerte für den 31.01.2015 in Holzhau im Erzgebirge (630m ü.NN)
ZeitTemperaturLuftdruckRel. LuftfeuchteWindWindrichtungWindchillTaupunktNiederschlag l/m²
23:45:00-5.80 °C984.90 hPa88.00 %-7.70 °C 
23:30:00-5.50 °C984.80 hPa88.00 %-7.40 °C 
23:15:00-5.10 °C984.80 hPa87.00 %-7.10 °C 
23:00:00-4.60 °C984.70 hPa87.00 %-6.70 °C 
22:45:00-4.10 °C984.50 hPa86.00 %-6.30 °C 
22:30:00-3.60 °C984.40 hPa86.00 %-5.80 °C 
22:15:00-3.10 °C984.50 hPa86.00 %-5.30 °C 
22:00:00-2.90 °C984.10 hPa86.00 %-5.10 °C 
21:45:00-2.80 °C984.20 hPa86.00 %-5.10 °C 
21:30:00-2.60 °C984.10 hPa86.00 %-4.90 °C 
21:15:00-2.60 °C984.00 hPa87.00 %-4.70 °C 
21:00:00-2.60 °C983.80 hPa87.00 %-4.70 °C 
20:45:00-2.50 °C983.80 hPa87.00 %-4.60 °C 
20:30:00-2.20 °C983.70 hPa87.00 %-4.30 °C 
20:15:00-2.10 °C983.70 hPa87.00 %-4.20 °C 
20:00:00-2.10 °C983.50 hPa88.00 %-4.00 °C 
19:45:00-2.00 °C983.40 hPa88.00 %-3.90 °C 
19:30:00-1.90 °C983.40 hPa88.00 %-3.80 °C 
19:15:00-1.90 °C983.10 hPa88.00 %-3.80 °C 
19:00:00-1.90 °C983.10 hPa88.00 %9.72 km/hSW-5.50 °C-3.80 °C 
18:45:00-1.90 °C983.00 hPa88.00 %3.24 km/hSSW-1.90 °C-3.80 °C 
18:30:00-2.00 °C982.70 hPa89.00 %3.24 km/hW-2.00 °C-3.80 °C 
18:15:00-2.10 °C982.60 hPa89.00 %4.32 km/hSSW-2.10 °C-3.90 °C 
18:00:00-2.10 °C982.50 hPa88.00 %-4.00 °C 
17:45:00-1.90 °C982.30 hPa88.00 %-3.80 °C 
17:30:00-1.60 °C982.20 hPa88.00 %-3.50 °C 
17:15:00-1.40 °C982.10 hPa87.00 %-3.50 °C 
17:00:00-1.40 °C981.90 hPa87.00 %-3.50 °C 
16:45:00-1.20 °C981.70 hPa87.00 %-3.30 °C 
16:30:00-1.20 °C981.60 hPa88.00 %-3.10 °C 
16:15:00-1.10 °C981.40 hPa88.00 %-3.00 °C 
16:00:00-1.00 °C981.10 hPa88.00 %6.12 km/hWSW-3.20 °C-2.90 °C 
15:45:00-0.80 °C980.90 hPa88.00 %-2.70 °C 
15:30:00-0.70 °C980.70 hPa88.00 %-2.60 °C 
15:15:00-0.70 °C980.60 hPa88.00 %3.24 km/hSSW-0.70 °C-2.60 °C 
15:00:00-0.60 °C980.30 hPa89.00 %-2.40 °C 
14:45:00-0.60 °C980.20 hPa90.00 %-2.20 °C 
14:30:00-1.00 °C980.20 hPa91.00 %6.48 km/hWNW-3.40 °C-2.40 °C 
14:15:00-1.20 °C980.00 hPa91.00 %-2.60 °C 
14:00:00-1.20 °C979.80 hPa90.00 %-2.80 °C 
13:45:00-1.40 °C979.50 hPa90.00 %-3.00 °C 
13:30:00-1.40 °C979.40 hPa90.00 %-3.00 °C 
13:15:00-1.40 °C979.30 hPa89.00 %-3.20 °C 
13:00:00-1.60 °C979.20 hPa89.00 %-3.40 °C 
12:45:00-1.60 °C979.30 hPa88.00 %-3.50 °C 
12:30:00-1.60 °C979.20 hPa87.00 %-3.70 °C 
12:15:00-1.70 °C979.00 hPa87.00 %-3.80 °C 
12:00:00-1.70 °C978.90 hPa87.00 %-3.80 °C 
11:45:00-1.70 °C978.90 hPa86.00 %-4.00 °C 
11:30:00-1.60 °C978.70 hPa85.00 %-4.00 °C 
11:15:00-1.50 °C978.60 hPa85.00 %-3.90 °C 
11:00:00-1.60 °C978.60 hPa86.00 %-3.90 °C 
10:45:00-1.80 °C978.50 hPa86.00 %6.84 km/hSSW-4.40 °C-4.10 °C 
10:30:00-1.90 °C978.30 hPa86.00 %-4.20 °C 
10:15:00-2.10 °C978.30 hPa86.00 %7.56 km/hSSW-5.10 °C-4.40 °C 
10:00:00-2.20 °C978.30 hPa87.00 %-4.30 °C 
09:45:00-2.60 °C978.30 hPa87.00 %6.48 km/hSSW-5.20 °C-4.70 °C 
09:30:00-3.10 °C978.10 hPa88.00 %6.12 km/hSW-5.60 °C-5.00 °C 
09:15:00-3.30 °C978.30 hPa88.00 %-5.20 °C 
09:00:00-3.60 °C978.40 hPa88.00 %-5.50 °C 
08:45:00-3.70 °C978.50 hPa88.00 %8.64 km/hWSW-7.30 °C-5.60 °C 
08:30:00-3.90 °C978.30 hPa88.00 %-5.80 °C 
08:15:00-4.10 °C978.30 hPa88.00 %-6.00 °C 
08:00:00-4.10 °C978.10 hPa88.00 %-6.00 °C 
07:45:00-3.90 °C977.90 hPa87.00 %-6.00 °C 
07:30:00-3.90 °C977.70 hPa88.00 %-5.80 °C 
07:15:00-3.90 °C977.80 hPa88.00 %4.68 km/hWSW-3.90 °C-5.80 °C 
07:00:00-3.90 °C977.80 hPa88.00 %-5.80 °C 
06:45:00-3.90 °C977.60 hPa89.00 %6.12 km/hSW-6.60 °C-5.60 °C 
06:30:00-3.90 °C977.40 hPa89.00 %11.16 km/hSSW-8.30 °C-5.60 °C 
06:15:00-3.90 °C977.30 hPa89.00 %-5.60 °C 
06:00:00-4.10 °C977.10 hPa90.00 %-5.70 °C 
05:45:00-3.90 °C977.00 hPa90.00 %-5.50 °C 
05:30:00-3.90 °C977.20 hPa90.00 %-5.50 °C 
05:15:00-4.00 °C977.10 hPa90.00 %-5.60 °C 
05:00:00-3.90 °C977.00 hPa90.00 %-5.50 °C 
04:45:00-3.80 °C977.00 hPa90.00 %-5.40 °C 
04:30:00-3.80 °C976.90 hPa90.00 %-5.40 °C 
04:15:00-3.80 °C976.80 hPa90.00 %-5.40 °C 
04:00:00-3.80 °C976.70 hPa90.00 %-5.40 °C 
03:45:00-3.70 °C976.60 hPa90.00 %-5.30 °C 
03:30:00-3.60 °C976.50 hPa90.00 %-5.20 °C 
03:15:00-3.60 °C976.20 hPa90.00 %-5.20 °C 
03:00:00-3.60 °C976.20 hPa90.00 %16.56 km/hW-9.20 °C-5.20 °C 
02:45:00-3.50 °C975.80 hPa90.00 %-5.10 °C 
02:30:00-3.50 °C975.90 hPa90.00 %-5.10 °C 
02:15:00-3.40 °C975.70 hPa90.00 %-5.00 °C 
02:00:00-3.40 °C975.60 hPa90.00 %-5.00 °C 
01:45:00-3.40 °C975.70 hPa90.00 %1.08 km/hWSW-3.40 °C-5.00 °C 
01:30:00-3.40 °C975.70 hPa90.00 %-5.00 °C 
01:15:00-3.40 °C975.50 hPa90.00 %-5.00 °C 
01:00:00-3.40 °C975.50 hPa90.00 %-5.00 °C 
00:45:00-3.40 °C975.40 hPa90.00 %-5.00 °C 
00:30:00-3.50 °C975.40 hPa90.00 %-5.10 °C 
00:15:00-3.50 °C975.50 hPa90.00 %-5.10 °C 
00:00:00-3.60 °C975.60 hPa90.00 %-5.20 °C 

Permanenter Link zu dieser Seite: Wetter im Erzgebirge am 31.01.2015
Performance-Info: Die Erstellung der Seite / Statistik(en) / Tabelle(n) erforderte 5 Datenbankserver-Abfrage(n) und dauerte 101 Millisekunden. (Dieser Messwert ist von der Gesamt-Auslastung des Servers abhängig.)
Erzgebirge - Wetter | Erzgebirge - Wetter (Mobilgeräte) | Komplette Klimadatenbank